Tracking 31027 objects as of 19-Jul-2025
HD Live streaming from Space Station
objects crossing your sky now

OBJECT A

Track OBJECT A now!
10-day predictions


NORAD ID: 58502
Int'l Code: 2023-189A
Perigee: 476.0 km
Apogee: 492.7 km
Inclination: 97.5 °
Period: 94.1 minutes
Semi major axis: 6855 km
RCS: Unknown
Launch date: December 4, 2023
Source: People's Republic of China (PRC)
Launch site: Jiuquan Satellite Launch Center, China (JSC)
Your satellite tracking list
FENGYUN 1C DEB
Track 1 satellite(s)




NASA's NSSDC Master Catalog

Two Line Element Set (TLE):
1 58502U 23189A   25199.89376263  .00003776  00000-0  13441-3 0  9992
2 58502  97.4539 211.5685 0012184  13.7475 346.4095 15.29522348 90203
Source of the keplerian elements: AFSPC